Time,TemperatureF,DewpointF,PressureIn,WindDirection,WindDirectionDegrees,WindSpeedMPH,WindSpeedGustMPH,Humidity,HourlyPrecipIn,Conditions,Clouds,dailyrainin,SolarRadiationWatts/m^2,SoftwareType,DateUTC
2013-05-12 00:42:00,70.0,19.0,30.24,West,259,15.0,24.0,14,0.00,,,0.00,0.000000,,2013-05-12 07:42:00,
2013-05-12 01:42:00,73.0,15.0,30.24,WSW,250,15.0,-999.0,11,-99.99,,,0.00,0.000000,,2013-05-12 08:42:00,
2013-05-12 02:43:00,71.0,7.0,30.23,WSW,243,17.0,-999.0,8,-99.99,,,0.00,0.000000,,2013-05-12 09:43:00,
2013-05-12 03:42:00,66.0,20.0,30.22,WSW,240,16.0,25.0,17,-99.99,,,0.00,0.000000,,2013-05-12 10:42:00,
2013-05-12 03:52:00,66.0,20.0,30.22,WSW,240,16.0,25.0,17,-99.99,,,0.00,0.000000,,2013-05-12 10:52:00,
2013-05-12 04:02:00,66.0,20.0,30.22,WSW,240,16.0,25.0,17,-99.99,,,0.00,0.000000,,2013-05-12 11:02:00,
2013-05-12 04:11:00,66.0,20.0,30.22,WSW,240,16.0,25.0,17,-99.99,,,0.00,0.000000,,2013-05-12 11:11:00,
2013-05-12 04:42:00,68.0,12.0,30.22,West,276,19.0,23.0,11,0.00,,,0.00,0.000000,,2013-05-12 11:42:00,
2013-05-12 05:42:00,69.0,12.0,30.21,WSW,245,13.0,21.0,11,0.00,,,0.00,0.000000,,2013-05-12 12:42:00,
2013-05-12 06:42:00,72.0,10.0,30.22,WSW,247,10.0,19.0,9,0.00,,,0.00,0.000000,,2013-05-12 13:42:00,
2013-05-12 06:52:00,72.0,10.0,30.22,WSW,247,10.0,19.0,9,0.00,,,0.00,0.000000,,2013-05-12 13:52:00,
2013-05-12 07:42:00,73.0,8.0,30.23,SW,234,14.0,17.0,8,-99.99,,,-99.99,0.000000,,2013-05-12 14:42:00,
2013-05-12 08:42:00,71.0,14.0,30.24,SW,222,16.0,19.0,11,-99.99,,,0.00,58.000000,,2013-05-12 15:42:00,
2013-05-12 08:53:00,71.0,14.0,30.24,SW,222,16.0,19.0,11,-99.99,,,0.00,58.000000,,2013-05-12 15:53:00,
2013-05-12 09:42:00,71.0,14.0,30.25,SW,234,11.0,18.0,11,0.00,,,0.00,254.000000,,2013-05-12 16:42:00,
2013-05-12 09:52:00,71.0,14.0,30.25,SW,234,11.0,18.0,11,0.00,,,0.00,254.000000,,2013-05-12 16:52:00,
2013-05-12 10:42:00,72.0,15.0,30.26,SW,233,12.0,15.0,11,0.00,,,0.00,385.000000,,2013-05-12 17:42:00,
2013-05-12 11:42:00,76.0,20.0,30.26,SSW,206,4.0,15.0,12,0.00,,,0.00,686.000000,,2013-05-12 18:42:00,
2013-05-12 11:52:00,76.0,20.0,30.26,SSW,206,4.0,15.0,12,0.00,,,0.00,686.000000,,2013-05-12 18:52:00,
2013-05-12 12:42:00,74.0,16.0,30.27,SSW,206,3.0,10.0,11,0.00,,,0.00,860.000000,,2013-05-12 19:42:00,
2013-05-12 13:42:00,72.0,22.0,30.26,SSW,210,5.0,11.0,15,0.00,,,0.00,990.000000,,2013-05-12 20:42:00,
2013-05-12 13:52:00,72.0,22.0,30.26,SSW,210,5.0,11.0,15,0.00,,,0.00,990.000000,,2013-05-12 20:52:00,
2013-05-12 14:33:00,71.0,25.0,30.25,West,275,5.0,16.0,18,0.00,,,0.00,1037.000000,,2013-05-12 21:33:00,
2013-05-12 15:42:00,74.0,40.0,30.24,SW,236,10.0,18.0,29,0.00,,,0.00,1052.000000,,2013-05-12 22:42:00,
2013-05-12 15:52:00,74.0,40.0,30.24,SW,236,10.0,18.0,29,0.00,,,0.00,1052.000000,,2013-05-12 22:52:00,
2013-05-12 16:02:00,74.0,40.0,30.24,SW,236,10.0,18.0,29,0.00,,,0.00,1052.000000,,2013-05-12 23:02:00,
2013-05-12 16:11:00,74.0,40.0,30.24,SW,236,10.0,18.0,29,0.00,,,0.00,1052.000000,,2013-05-12 23:11:00,
2013-05-12 16:42:00,71.0,29.0,30.22,SW,227,8.0,21.0,21,0.00,,,0.00,995.000000,,2013-05-12 23:42:00,
2013-05-12 16:52:00,71.0,29.0,30.22,SW,227,8.0,21.0,21,0.00,,,0.00,995.000000,,2013-05-12 23:52:00,
2013-05-12 17:42:00,70.0,23.0,30.20,West,270,8.0,18.0,17,0.00,,,0.00,869.000000,,2013-05-13 00:42:00,
2013-05-12 18:42:00,69.0,26.0,30.18,WSW,250,10.0,19.0,20,0.00,,,0.00,466.000000,,2013-05-13 01:42:00,
2013-05-12 18:52:00,69.0,26.0,30.18,WSW,250,10.0,19.0,20,0.00,,,0.00,466.000000,,2013-05-13 01:52:00,
2013-05-12 19:32:00,69.0,10.0,30.16,WSW,248,15.0,25.0,10,0.00,,,0.00,415.000000,,2013-05-13 02:32:00,
2013-05-12 20:42:00,69.0,5.0,30.15,WSW,243,18.0,26.0,8,0.00,,,0.00,294.000000,,2013-05-13 03:42:00,
2013-05-12 20:53:00,69.0,5.0,30.15,WSW,243,18.0,26.0,8,0.00,,,0.00,294.000000,,2013-05-13 03:53:00,
2013-05-12 21:42:00,70.0,6.0,30.16,WSW,242,19.0,28.0,8,-99.99,,,0.00,88.000000,,2013-05-13 04:42:00,
2013-05-12 21:52:00,70.0,6.0,30.16,WSW,242,19.0,28.0,8,-99.99,,,0.00,88.000000,,2013-05-13 04:52:00,
2013-05-12 22:42:00,68.0,2.0,30.17,WSW,243,17.0,-999.0,7,-99.99,,,0.00,1.000000,,2013-05-13 05:42:00,
2013-05-12 22:52:00,68.0,2.0,30.17,WSW,243,17.0,-999.0,7,-99.99,,,0.00,1.000000,,2013-05-13 05:52:00,
2013-05-12 23:42:00,70.0,9.0,30.17,WSW,254,17.0,-999.0,9,-99.99,,,0.00,0.000000,,2013-05-13 06:42:00,